Terminal Aerodrome Forecast
Issued by NWS Wilmington, OH

Current Version | Previous Version | Graphics & Text | Print | Product List | Glossary On
Versions: 1 2 3 4 5 6 7 8 9 10 11 12 13 14 15 16 17 18 19 20 21 22
147
FTUS41 KILN 231736
TAFILN
TAF
KILN 231736Z 2318/2418 21010KT P6SM BKN020
     FM232200 20007KT P6SM BKN040
     FM241100 19011KT P6SM BKN080
     FM241500 19014G24KT P6SM BKN028=

USA.gov is the U.S. government's official web portal to all federal, state and local government web resources and services.